Weather History for Tacoma Narrows, WA

Change the Weather History Date:

Wednesday, March 6, 2013

  Actual Average Record
Temperature  
Mean Temperature 42 °F -  
Max Temperature 44 °F 48 °F 64 °F (2007)
Min Temperature 39 °F 38 °F 28 °F (2012)
Degree Days  
Heating Degree Days 24    
Moisture  
Dew Point 38 °F    
Average Humidity 87    
Maximum Humidity 93    
Minimum Humidity 81    
Precipitation  
Precipitation 0.26 in - - ()
Sea Level Pressure  
Sea Level Pressure 29.72 in    
Wind  
Wind Speed 10 mph (NNW)    
Max Wind Speed 17 mph    
Max Gust Speed 24 mph    
Visibility 10 miles    
Events Rain    
Averages and records for this station are not official NWS values.
T = Trace of Precipitation, MM = Missing Value Source: NWS Daily Summary

Daily Weather History Graph

Daily Weather History Graph

Search for Another Location

Airport:

Trip Planner

Search our weather history database for the weather conditions in past years. The results will help you decide how hot, cold, wet, or windy it might be!

Date:

Astronomy

Mar. 06, 2013 Rise Set
Actual Time 6:40 AM PST 6:03 PM PST
Civil Twilight 6:09 AM PST 6:34 PM PST
Nautical Twilight 5:34 AM PST 7:09 PM PST
Astronomical Twilight 4:58 AM PST 7:45 PM PST
Moon 3:11 AM PST (3/6) 12:34 PM PST (3/6)
Length of Visible Light 12h 24m
Length of Day
11h 23m
Waning Crescent, 29% of the Moon is Illuminated
Mar 6
Waning Crescent
Mar 11
New
Mar 19
First Quarter
Mar 27
Full
Apr 2
Last Quarter

Hourly Weather History & Observations

Time (PST) Temp. Windchill Dew Point Humidity Pressure Visibility Wind Dir Wind Speed Gust Speed Precip Events Conditions
12:53 AM 41.0 °F 34.3 °F 39.0 °F 93% 29.69 in 10.0 mi North 11.5 mph - N/A   Mostly Cloudy
1:53 AM 41.0 °F 33.9 °F 37.9 °F 89% 29.67 in 10.0 mi North 12.7 mph - N/A   Partly Cloudy
2:53 AM 39.9 °F 33.9 °F 37.0 °F 89% 29.64 in 10.0 mi North 9.2 mph - N/A   Partly Cloudy
3:53 AM 39.9 °F 33.4 °F 37.0 °F 89% 29.62 in 10.0 mi North 10.4 mph - N/A   Mostly Cloudy
4:53 AM 41.0 °F 33.9 °F 37.9 °F 89% 29.60 in 10.0 mi North 12.7 mph - N/A   Overcast
5:53 AM 42.1 °F 33.9 °F 37.9 °F 85% 29.58 in 10.0 mi North 17.3 mph 24.2 mph N/A   Overcast
6:53 AM 42.1 °F 35.7 °F 37.9 °F 85% 29.58 in 10.0 mi North 11.5 mph 18.4 mph N/A   Overcast
7:53 AM 42.1 °F 36.6 °F 37.0 °F 82% 29.60 in 10.0 mi North 9.2 mph - N/A   Overcast
8:53 AM 42.1 °F 36.6 °F 37.0 °F 82% 29.61 in 10.0 mi NNW 9.2 mph - 0.01 in Rain Light Rain
9:53 AM 42.1 °F 36.6 °F 37.9 °F 85% 29.61 in 9.0 mi NNW 9.2 mph - 0.02 in Rain Light Rain
10:53 AM 43.0 °F 37.2 °F 39.0 °F 86% 29.63 in 10.0 mi North 10.4 mph - 0.01 in   Overcast
11:51 AM 44.6 °F 41.4 °F 39.2 °F 81% 29.64 in 10.0 mi North 5.8 mph - N/A   Overcast
11:53 AM 44.1 °F 40.1 °F 39.0 °F 82% 29.65 in 10.0 mi North 6.9 mph - N/A   Overcast
12:53 PM 43.0 °F 40.3 °F 39.0 °F 86% 29.67 in 8.0 mi North 4.6 mph - 0.00 in Rain Light Rain
1:53 PM 43.0 °F 41.3 °F 39.0 °F 86% 29.68 in 10.0 mi NNW 3.5 mph - 0.01 in Rain Light Rain
2:53 PM 43.0 °F - 39.0 °F 86% 29.71 in 10.0 mi Calm Calm - 0.01 in Rain Light Rain
2:55 PM 42.8 °F - 39.2 °F 87% 29.70 in 10.0 mi Calm Calm - 0.00 in Rain Light Rain
3:53 PM 43.0 °F - 39.0 °F 86% 29.73 in 7.0 mi Calm Calm - 0.01 in Rain Light Rain
4:53 PM 43.0 °F 39.5 °F 39.9 °F 89% 29.75 in 9.0 mi South 5.8 mph - 0.02 in Rain Light Rain
5:53 PM 43.0 °F 37.2 °F 39.9 °F 89% 29.77 in 10.0 mi South 10.4 mph - 0.04 in Rain Light Rain
6:53 PM 42.1 °F 35.2 °F 39.0 °F 89% 29.80 in 10.0 mi South 12.7 mph - 0.02 in Rain Light Rain
7:53 PM 41.0 °F 34.3 °F 37.9 °F 89% 29.83 in 10.0 mi South 11.5 mph 20.7 mph 0.03 in Rain Light Rain
8:44 PM 41.0 °F 34.3 °F 37.4 °F 87% 29.84 in 10.0 mi South 11.5 mph - 0.02 in Rain Light Rain
8:53 PM 39.9 °F 33.9 °F 37.0 °F 89% 29.86 in 10.0 mi South 9.2 mph - 0.03 in Rain Light Rain
9:37 PM 41.0 °F 35.8 °F 37.4 °F 87% 29.86 in 10.0 mi South 8.1 mph - 0.00 in Rain Light Rain
9:53 PM 41.0 °F 34.7 °F 37.9 °F 89% 29.87 in 10.0 mi South 10.4 mph - 0.01 in Rain Light Rain
10:53 PM 41.0 °F 35.2 °F 37.9 °F 89% 29.89 in 10.0 mi South 9.2 mph - 0.01 in Rain Light Rain
10:59 PM 41.0 °F 35.2 °F 39.2 °F 93% 29.89 in 10.0 mi South 9.2 mph - 0.00 in Rain Light Rain
11:53 PM 42.1 °F 35.7 °F 39.0 °F 89% 29.91 in 10.0 mi South 11.5 mph - 0.03 in Rain Light Rain